Time,TemperatureF,DewpointF,PressureIn,WindDirection,WindDirectionDegrees,WindSpeedMPH,WindSpeedGustMPH,Humidity,HourlyPrecipIn,Conditions,Clouds,dailyrainin,SoftwareType,DateUTC
2013-07-16 00:02:00,51.9,48.2,30.52,SW,231,3.0,3.5,87,0.00,,,0.00,CWS Microserver 1.4,2013-07-16 06:02:00,
2013-07-16 00:07:00,51.9,48.1,30.52,SE,142,0.4,3.5,86,0.00,,,0.00,CWS Microserver 1.4,2013-07-16 06:07:00,
2013-07-16 00:12:00,51.4,47.7,30.52,SW,230,2.7,3.0,87,0.00,,,0.00,CWS Microserver 1.4,2013-07-16 06:12:00,
2013-07-16 00:17:00,51.2,47.8,30.52,SW,225,1.7,3.5,88,0.00,,,0.00,CWS Microserver 1.4,2013-07-16 06:17:00,
2013-07-16 00:22:00,51.0,47.6,30.52,SW,229,0.6,3.5,88,0.00,,,0.00,CWS Microserver 1.4,2013-07-16 06:22:00,
2013-07-16 00:27:00,50.9,47.6,30.52,SW,235,1.3,2.0,88,0.00,,,0.00,CWS Microserver 1.4,2013-07-16 06:27:00,
2013-07-16 00:32:00,50.7,47.5,30.52,SW,221,2.7,2.7,88,0.00,,,0.00,CWS Microserver 1.4,2013-07-16 06:32:00,
2013-07-16 00:37:00,50.7,47.5,30.52,WSW,244,1.0,3.5,88,0.00,,,0.00,CWS Microserver 1.4,2013-07-16 06:37:00,
2013-07-16 00:42:00,50.5,47.3,30.52,NNW,334,1.9,3.5,88,0.00,,,0.00,CWS Microserver 1.4,2013-07-16 06:42:00,
2013-07-16 00:47:00,50.3,47.1,30.52,SW,229,1.8,3.1,88,0.00,,,0.00,CWS Microserver 1.4,2013-07-16 06:47:00,
2013-07-16 00:52:00,50.1,46.9,30.52,SW,229,1.4,3.1,88,0.00,,,0.00,CWS Microserver 1.4,2013-07-16 06:52:00,
2013-07-16 00:57:00,50.1,47.0,30.52,WSW,244,1.7,2.8,89,0.00,,,0.00,CWS Microserver 1.4,2013-07-16 06:57:00,
2013-07-16 01:02:00,50.0,46.9,30.52,SW,229,1.2,2.8,89,0.00,,,0.00,CWS Microserver 1.4,2013-07-16 07:02:00,
2013-07-16 01:07:00,49.8,46.7,30.52,East,97,0.4,2.9,89,0.00,,,0.00,CWS Microserver 1.4,2013-07-16 07:07:00,
2013-07-16 01:12:00,49.8,46.7,30.52,SW,219,1.4,2.9,88,0.00,,,0.00,CWS Microserver 1.4,2013-07-16 07:12:00,
2013-07-16 01:17:00,49.6,46.5,30.52,SW,216,2.1,5.1,89,0.00,,,0.00,CWS Microserver 1.4,2013-07-16 07:17:00,
2013-07-16 01:22:00,49.4,46.3,30.52,SW,225,0.9,5.1,89,0.00,,,0.00,CWS Microserver 1.4,2013-07-16 07:22:00,
2013-07-16 01:27:00,49.2,46.2,30.52,SW,229,2.1,3.8,89,0.00,,,0.00,CWS Microserver 1.4,2013-07-16 07:27:00,
2013-07-16 01:32:00,49.2,46.1,30.51,SW,234,2.8,3.8,89,0.00,,,0.00,CWS Microserver 1.4,2013-07-16 07:32:00,
2013-07-16 01:37:00,49.2,46.0,30.51,WSW,254,1.4,5.5,88,0.00,,,0.00,CWS Microserver 1.4,2013-07-16 07:37:00,
2013-07-16 01:42:00,49.1,45.8,30.51,North,7,0.7,5.5,88,0.00,,,0.00,CWS Microserver 1.4,2013-07-16 07:42:00,
2013-07-16 01:47:00,48.9,45.7,30.51,SW,214,2.0,2.9,88,0.00,,,0.00,CWS Microserver 1.4,2013-07-16 07:47:00,
2013-07-16 01:52:00,48.7,45.6,30.51,SSW,211,3.1,4.2,89,0.00,,,0.00,CWS Microserver 1.4,2013-07-16 07:52:00,
2013-07-16 01:57:00,48.5,45.4,30.51,WSW,240,1.4,4.2,89,0.00,,,0.00,CWS Microserver 1.4,2013-07-16 07:57:00,
2013-07-16 02:02:00,48.5,45.4,30.51,NW,319,0.5,4.0,89,0.00,,,0.00,CWS Microserver 1.4,2013-07-16 08:02:00,
2013-07-16 02:07:00,48.3,45.1,30.51,SE,133,0.9,3.1,88,0.00,,,0.00,CWS Microserver 1.4,2013-07-16 08:07:00,
2013-07-16 02:12:00,48.2,44.9,30.51,SW,216,3.3,4.2,88,0.00,,,0.00,CWS Microserver 1.4,2013-07-16 08:12:00,
2013-07-16 02:17:00,48.2,44.9,30.51,SW,214,2.0,4.2,88,0.00,,,0.00,CWS Microserver 1.4,2013-07-16 08:17:00,
2013-07-16 02:22:00,48.0,44.7,30.51,SSW,210,2.1,3.9,88,0.00,,,0.00,CWS Microserver 1.4,2013-07-16 08:22:00,
2013-07-16 02:27:00,48.0,44.7,30.51,NE,46,0.3,4.0,88,0.00,,,0.00,CWS Microserver 1.4,2013-07-16 08:27:00,
2013-07-16 02:32:00,47.8,44.6,30.51,SSW,213,2.0,4.0,88,0.00,,,0.00,CWS Microserver 1.4,2013-07-16 08:32:00,
2013-07-16 02:37:00,47.4,44.2,30.51,NNW,344,0.6,3.2,88,0.00,,,0.00,CWS Microserver 1.4,2013-07-16 08:37:00,
2013-07-16 02:42:00,47.4,44.3,30.51,West,259,1.2,3.2,88,0.00,,,0.00,CWS Microserver 1.4,2013-07-16 08:42:00,
2013-07-16 02:47:00,47.4,44.3,30.51,WNW,282,2.2,3.0,89,0.00,,,0.00,CWS Microserver 1.4,2013-07-16 08:47:00,
2013-07-16 02:52:00,47.4,44.2,30.51,SSW,211,1.7,4.4,88,0.00,,,0.00,CWS Microserver 1.4,2013-07-16 08:52:00,
2013-07-16 02:57:00,47.3,44.0,30.51,WSW,252,3.7,4.4,88,0.00,,,0.00,CWS Microserver 1.4,2013-07-16 08:57:00,
2013-07-16 03:03:00,47.3,44.1,30.50,NW,326,1.7,3.9,88,0.00,,,0.00,CWS Microserver 1.4,2013-07-16 09:03:00,
2013-07-16 03:12:00,46.9,43.7,30.50,SW,231,2.9,3.6,88,0.00,,,0.00,CWS Microserver 1.4,2013-07-16 09:12:00,
2013-07-16 03:17:00,46.9,43.7,30.51,NW,315,1.4,3.9,88,0.00,,,0.00,CWS Microserver 1.4,2013-07-16 09:17:00,
2013-07-16 03:22:00,46.7,43.5,30.51,WSW,252,0.6,4.0,88,0.00,,,0.00,CWS Microserver 1.4,2013-07-16 09:22:00,
2013-07-16 03:32:00,46.7,43.4,30.50,WNW,285,4.0,5.3,88,0.00,,,0.00,CWS Microserver 1.4,2013-07-16 09:32:00,
2013-07-16 03:37:00,46.7,43.4,30.50,WSW,251,2.1,5.3,88,0.00,,,0.00,CWS Microserver 1.4,2013-07-16 09:37:00,
2013-07-16 03:42:00,46.7,43.4,30.50,NW,315,1.7,4.9,88,0.00,,,0.00,CWS Microserver 1.4,2013-07-16 09:42:00,
2013-07-16 03:47:00,46.5,43.2,30.50,South,171,0.2,4.8,88,0.00,,,0.00,CWS Microserver 1.4,2013-07-16 09:47:00,
2013-07-16 03:52:00,46.5,43.3,30.50,West,261,3.1,4.2,88,0.00,,,0.00,CWS Microserver 1.4,2013-07-16 09:52:00,
2013-07-16 03:57:00,46.4,43.2,30.50,NW,317,4.8,5.4,88,0.00,,,0.00,CWS Microserver 1.4,2013-07-16 09:57:00,
2013-07-16 04:02:00,46.4,43.1,30.50,WNW,283,0.6,5.4,88,0.00,,,0.00,CWS Microserver 1.4,2013-07-16 10:02:00,
2013-07-16 04:07:00,46.4,43.1,30.50,South,184,1.8,4.8,88,0.00,,,0.00,CWS Microserver 1.4,2013-07-16 10:07:00,
2013-07-16 04:12:00,46.2,43.0,30.50,West,262,0.4,4.0,88,0.00,,,0.00,CWS Microserver 1.4,2013-07-16 10:12:00,
2013-07-16 04:17:00,46.2,43.0,30.50,SW,225,3.2,4.0,88,0.00,,,0.00,CWS Microserver 1.4,2013-07-16 10:17:00,
2013-07-16 04:22:00,46.2,43.0,30.50,SW,221,2.1,4.0,88,0.00,,,0.00,CWS Microserver 1.4,2013-07-16 10:22:00,
2013-07-16 04:27:00,46.0,42.9,30.50,SW,225,0.4,4.9,89,0.00,,,0.00,CWS Microserver 1.4,2013-07-16 10:27:00,
2013-07-16 04:32:00,46.0,42.7,30.50,SSW,213,3.1,4.9,88,0.00,,,0.00,CWS Microserver 1.4,2013-07-16 10:32:00,
2013-07-16 04:37:00,45.8,42.5,30.50,SSW,210,2.3,4.4,88,0.00,,,0.00,CWS Microserver 1.4,2013-07-16 10:37:00,
2013-07-16 04:42:00,45.6,42.4,30.50,SW,219,1.9,4.4,88,0.00,,,0.00,CWS Microserver 1.4,2013-07-16 10:42:00,
2013-07-16 04:47:00,45.6,42.5,30.50,West,274,2.4,4.1,88,0.00,,,0.00,CWS Microserver 1.4,2013-07-16 10:47:00,
2013-07-16 04:52:00,45.6,42.4,30.50,WSW,245,3.0,4.2,88,0.00,,,0.00,CWS Microserver 1.4,2013-07-16 10:52:00,
2013-07-16 04:57:00,45.5,42.3,30.50,SW,217,3.2,4.2,88,0.00,,,0.00,CWS Microserver 1.4,2013-07-16 10:57:00,
2013-07-16 05:02:00,45.3,42.2,30.50,SW,233,3.8,5.0,88,0.00,,,0.00,CWS Microserver 1.4,2013-07-16 11:02:00,
2013-07-16 05:08:00,45.3,42.2,30.50,WSW,237,2.4,5.0,88,0.00,,,0.00,CWS Microserver 1.4,2013-07-16 11:08:00,
2013-07-16 05:17:00,45.1,42.0,30.50,WSW,258,1.1,4.7,88,0.00,,,0.00,CWS Microserver 1.4,2013-07-16 11:17:00,
2013-07-16 05:22:00,45.1,42.0,30.50,SSW,209,2.1,4.7,88,0.00,,,0.00,CWS Microserver 1.4,2013-07-16 11:22:00,
2013-07-16 05:27:00,44.7,41.6,30.50,SW,218,1.1,4.7,88,0.00,,,0.00,CWS Microserver 1.4,2013-07-16 11:27:00,
2013-07-16 05:32:00,44.9,42.0,30.50,WSW,238,2.0,4.7,89,0.00,,,0.00,CWS Microserver 1.4,2013-07-16 11:32:00,
2013-07-16 05:37:00,44.7,41.7,30.50,SW,236,2.0,4.7,89,0.00,,,0.00,CWS Microserver 1.4,2013-07-16 11:37:00,
2013-07-16 05:42:00,44.6,41.7,30.51,WSW,239,2.1,4.3,89,0.00,,,0.00,CWS Microserver 1.4,2013-07-16 11:42:00,
2013-07-16 05:47:00,44.6,41.8,30.50,SSW,213,1.5,4.3,89,0.00,,,0.00,CWS Microserver 1.4,2013-07-16 11:47:00,
2013-07-16 05:52:00,44.7,41.9,30.51,SE,139,0.3,3.6,89,0.00,,,0.00,CWS Microserver 1.4,2013-07-16 11:52:00,
2013-07-16 05:57:00,44.9,42.0,30.50,WSW,248,2.1,5.1,89,0.00,,,0.00,CWS Microserver 1.4,2013-07-16 11:57:00,
2013-07-16 06:02:00,44.7,41.5,30.50,SSW,198,0.9,5.1,88,0.00,,,0.00,CWS Microserver 1.4,2013-07-16 12:02:00,
2013-07-16 06:07:00,44.6,41.7,30.51,WSW,249,2.3,4.9,89,0.00,,,0.00,CWS Microserver 1.4,2013-07-16 12:07:00,
2013-07-16 06:12:00,44.4,41.4,30.51,SW,218,3.0,4.9,89,0.00,,,0.00,CWS Microserver 1.4,2013-07-16 12:12:00,
2013-07-16 06:17:00,44.6,41.8,30.51,WNW,292,0.9,4.3,89,0.00,,,0.00,CWS Microserver 1.4,2013-07-16 12:17:00,
2013-07-16 06:22:00,44.7,41.7,30.51,SSW,200,2.6,5.6,89,0.00,,,0.00,CWS Microserver 1.4,2013-07-16 12:22:00,
2013-07-16 06:27:00,44.6,41.5,30.51,SW,235,2.7,5.6,88,0.00,,,0.00,CWS Microserver 1.4,2013-07-16 12:27:00,
2013-07-16 06:32:00,44.6,41.6,30.50,West,270,2.2,3.7,89,0.00,,,0.00,CWS Microserver 1.4,2013-07-16 12:32:00,
2013-07-16 06:37:00,44.6,41.7,30.51,WSW,251,2.5,4.3,89,0.00,,,0.00,CWS Microserver 1.4,2013-07-16 12:37:00,
2013-07-16 06:42:00,44.7,41.6,30.51,SSW,211,2.3,4.3,88,0.00,,,0.00,CWS Microserver 1.4,2013-07-16 12:42:00,
2013-07-16 06:47:00,44.9,41.8,30.51,SSW,209,3.0,5.8,88,0.00,,,0.00,CWS Microserver 1.4,2013-07-16 12:47:00,
2013-07-16 06:52:00,44.9,41.7,30.51,NNW,336,0.9,5.8,88,0.00,,,0.00,CWS Microserver 1.4,2013-07-16 12:52:00,
2013-07-16 06:57:00,44.7,41.6,30.51,South,182,0.4,3.4,88,0.00,,,0.00,CWS Microserver 1.4,2013-07-16 12:57:00,
2013-07-16 07:02:00,45.3,42.2,30.51,SE,129,0.3,2.8,89,0.00,,,0.00,CWS Microserver 1.4,2013-07-16 13:02:00,
2013-07-16 07:07:00,46.2,42.6,30.51,NW,313,3.1,4.6,87,0.00,,,0.00,CWS Microserver 1.4,2013-07-16 13:07:00,
2013-07-16 07:12:00,46.9,42.8,30.51,WNW,301,3.1,4.6,85,0.00,,,0.00,CWS Microserver 1.4,2013-07-16 13:12:00,
2013-07-16 07:17:00,47.6,43.0,30.51,WSW,244,0.8,4.3,84,0.00,,,0.00,CWS Microserver 1.4,2013-07-16 13:17:00,
2013-07-16 07:22:00,48.7,43.4,30.51,WNW,302,1.2,4.9,81,0.00,,,0.00,CWS Microserver 1.4,2013-07-16 13:22:00,
2013-07-16 07:27:00,49.2,43.7,30.51,WNW,290,1.8,4.9,81,0.00,,,0.00,CWS Microserver 1.4,2013-07-16 13:27:00,
2013-07-16 07:32:00,50.0,44.2,30.51,North,2,0.6,5.2,80,0.00,,,0.00,CWS Microserver 1.4,2013-07-16 13:32:00,
2013-07-16 07:37:00,50.3,44.1,30.51,West,268,2.3,5.2,79,0.00,,,0.00,CWS Microserver 1.4,2013-07-16 13:37:00,
2013-07-16 07:42:00,50.9,44.6,30.51,West,272,3.8,4.0,78,0.00,,,0.00,CWS Microserver 1.4,2013-07-16 13:42:00,
2013-07-16 07:47:00,51.0,44.4,30.51,WNW,293,2.9,4.0,78,0.00,,,0.00,CWS Microserver 1.4,2013-07-16 13:47:00,
2013-07-16 07:52:00,51.4,45.0,30.52,WNW,284,3.7,3.9,78,0.00,,,0.00,CWS Microserver 1.4,2013-07-16 13:52:00,
2013-07-16 07:57:00,51.8,45.0,30.52,West,267,3.5,3.9,77,0.00,,,0.00,CWS Microserver 1.4,2013-07-16 13:57:00,
2013-07-16 08:02:00,51.9,44.9,30.51,NW,313,2.9,4.7,77,0.00,,,0.00,CWS Microserver 1.4,2013-07-16 14:02:00,
2013-07-16 08:07:00,52.8,45.7,30.51,West,264,1.4,4.8,76,0.00,,,0.00,CWS Microserver 1.4,2013-07-16 14:07:00,
2013-07-16 08:12:00,54.1,46.3,30.52,WNW,301,2.6,4.8,74,0.00,,,0.00,CWS Microserver 1.4,2013-07-16 14:12:00,
2013-07-16 08:17:00,54.6,46.3,30.52,NNW,339,0.8,3.7,73,0.00,,,0.00,CWS Microserver 1.4,2013-07-16 14:17:00,
2013-07-16 08:22:00,55.4,46.2,30.52,West,279,1.9,4.0,71,0.00,,,0.00,CWS Microserver 1.4,2013-07-16 14:22:00,
2013-07-16 08:27:00,56.6,46.7,30.52,WNW,289,0.6,4.0,69,0.00,,,0.00,CWS Microserver 1.4,2013-07-16 14:27:00,
2013-07-16 08:32:00,57.9,46.9,30.52,West,280,1.7,3.9,66,0.00,,,0.00,CWS Microserver 1.4,2013-07-16 14:32:00,
2013-07-16 08:37:00,58.6,46.6,30.52,WNW,293,1.4,3.0,64,0.00,,,0.00,CWS Microserver 1.4,2013-07-16 14:37:00,
2013-07-16 08:42:00,59.3,46.2,30.52,ENE,69,0.7,3.1,61,0.00,,,0.00,CWS Microserver 1.4,2013-07-16 14:42:00,
2013-07-16 08:47:00,60.4,46.8,30.52,ENE,76,0.9,5.1,60,0.00,,,0.00,CWS Microserver 1.4,2013-07-16 14:47:00,
2013-07-16 08:52:00,61.1,47.5,30.52,SE,137,3.2,5.1,60,0.00,,,0.00,CWS Microserver 1.4,2013-07-16 14:52:00,
2013-07-16 08:57:00,61.1,46.4,30.52,East,96,4.4,7.8,58,0.00,,,0.00,CWS Microserver 1.4,2013-07-16 14:57:00,
2013-07-16 09:02:00,61.5,46.4,30.52,SE,143,0.7,7.8,57,0.00,,,0.00,CWS Microserver 1.4,2013-07-16 15:02:00,
2013-07-16 09:07:00,61.7,46.4,30.52,ESE,104,3.7,6.3,57,0.00,,,0.00,CWS Microserver 1.4,2013-07-16 15:07:00,
2013-07-16 09:12:00,62.0,46.1,30.52,ESE,113,5.2,8.3,56,0.00,,,0.00,CWS Microserver 1.4,2013-07-16 15:12:00,
2013-07-16 09:17:00,61.8,45.8,30.52,ESE,111,4.3,8.3,55,0.00,,,0.00,CWS Microserver 1.4,2013-07-16 15:17:00,
2013-07-16 09:22:00,61.7,46.4,30.52,ESE,104,7.7,8.7,57,0.00,,,0.00,CWS Microserver 1.4,2013-07-16 15:22:00,
2013-07-16 09:27:00,61.8,46.6,30.52,ESE,115,3.4,8.7,57,0.00,,,0.00,CWS Microserver 1.4,2013-07-16 15:27:00,
2013-07-16 09:32:00,61.8,46.4,30.52,East,86,7.7,10.1,57,0.00,,,0.00,CWS Microserver 1.4,2013-07-16 15:32:00,
2013-07-16 09:37:00,61.8,47.0,30.53,East,83,9.6,10.8,58,0.00,,,0.00,CWS Microserver 1.4,2013-07-16 15:37:00,
2013-07-16 09:42:00,61.8,47.4,30.52,East,88,1.7,10.8,59,0.00,,,0.00,CWS Microserver 1.4,2013-07-16 15:42:00,
2013-07-16 09:47:00,62.4,48.1,30.52,ESE,116,8.6,10.9,59,0.00,,,0.00,CWS Microserver 1.4,2013-07-16 15:47:00,
2013-07-16 09:52:00,61.7,47.6,30.53,ENE,76,4.4,11.1,59,0.00,,,0.00,CWS Microserver 1.4,2013-07-16 15:52:00,
2013-07-16 09:57:00,62.0,47.7,30.53,ENE,76,10.7,13.3,59,0.00,,,0.00,CWS Microserver 1.4,2013-07-16 15:57:00,
2013-07-16 10:02:00,61.8,47.7,30.53,ESE,110,7.3,13.3,59,0.00,,,0.00,CWS Microserver 1.4,2013-07-16 16:02:00,
2013-07-16 10:12:00,62.7,48.1,30.53,ESE,118,6.5,10.6,59,0.00,,,0.00,CWS Microserver 1.4,2013-07-16 16:12:00,
2013-07-16 10:17:00,62.7,47.9,30.53,ESE,105,4.6,11.6,58,0.00,,,0.00,CWS Microserver 1.4,2013-07-16 16:17:00,
2013-07-16 10:22:00,62.7,48.0,30.53,ESE,102,4.2,11.6,58,0.00,,,0.00,CWS Microserver 1.4,2013-07-16 16:22:00,
2013-07-16 10:27:00,62.9,48.1,30.53,SE,136,3.3,10.7,58,0.00,,,0.00,CWS Microserver 1.4,2013-07-16 16:27:00,
2013-07-16 10:32:00,64.0,47.0,30.52,East,98,4.7,9.0,54,0.00,,,0.00,CWS Microserver 1.4,2013-07-16 16:32:00,
2013-07-16 10:37:00,64.4,45.6,30.52,SE,138,5.3,9.1,50,0.00,,,0.00,CWS Microserver 1.4,2013-07-16 16:37:00,
2013-07-16 10:42:00,64.5,46.8,30.52,East,100,4.6,9.7,52,0.00,,,0.00,CWS Microserver 1.4,2013-07-16 16:42:00,
2013-07-16 10:47:00,64.5,45.7,30.52,East,79,2.3,10.2,50,0.00,,,0.00,CWS Microserver 1.4,2013-07-16 16:47:00,
2013-07-16 10:52:00,65.1,45.8,30.52,ESE,114,4.5,10.2,49,0.00,,,0.00,CWS Microserver 1.4,2013-07-16 16:52:00,
2013-07-16 10:57:00,65.4,44.4,30.52,ESE,109,6.4,11.1,46,0.00,,,0.00,CWS Microserver 1.4,2013-07-16 16:57:00,
2013-07-16 11:02:00,65.3,43.2,30.52,East,99,7.6,14.2,44,0.00,,,0.00,CWS Microserver 1.4,2013-07-16 17:02:00,
2013-07-16 11:07:00,65.4,42.8,30.53,East,99,8.0,14.5,43,0.00,,,0.00,CWS Microserver 1.4,2013-07-16 17:07:00,
2013-07-16 11:12:00,65.4,41.3,30.53,ESE,122,0.7,14.5,41,0.00,,,0.00,CWS Microserver 1.4,2013-07-16 17:12:00,
2013-07-16 11:17:00,65.3,42.9,30.53,East,86,3.8,10.0,44,0.00,,,0.00,CWS Microserver 1.4,2013-07-16 17:17:00,
2013-07-16 11:22:00,65.8,43.2,30.53,East,99,8.5,12.2,44,0.00,,,0.00,CWS Microserver 1.4,2013-07-16 17:22:00,
2013-07-16 11:27:00,66.3,41.5,30.53,ENE,76,7.6,12.2,40,0.00,,,0.00,CWS Microserver 1.4,2013-07-16 17:27:00,
2013-07-16 11:32:00,65.6,40.0,30.53,ESE,110,12.4,13.2,39,0.00,,,0.00,CWS Microserver 1.4,2013-07-16 17:32:00,
2013-07-16 11:37:00,66.0,39.7,30.53,ESE,110,5.5,13.2,38,0.00,,,0.00,CWS Microserver 1.4,2013-07-16 17:37:00,
2013-07-16 11:42:00,66.2,38.3,30.53,East,98,6.9,13.4,35,0.00,,,0.00,CWS Microserver 1.4,2013-07-16 17:42:00,
2013-07-16 11:47:00,65.6,41.5,30.53,East,82,4.9,13.4,41,0.00,,,0.00,CWS Microserver 1.4,2013-07-16 17:47:00,
2013-07-16 11:52:00,66.0,40.7,30.53,ENE,75,4.2,16.4,39,0.00,,,0.00,CWS Microserver 1.4,2013-07-16 17:52:00,
2013-07-16 11:57:00,65.8,42.0,30.53,ESE,116,4.2,16.4,41,0.00,,,0.00,CWS Microserver 1.4,2013-07-16 17:57:00,
2013-07-16 12:02:00,66.2,41.1,30.53,NE,56,2.4,12.1,40,0.00,,,0.00,CWS Microserver 1.4,2013-07-16 18:02:00,
2013-07-16 12:07:00,65.4,41.7,30.53,East,100,10.0,11.2,42,0.00,,,0.00,CWS Microserver 1.4,2013-07-16 18:07:00,
2013-07-16 12:12:00,65.4,41.7,30.53,ESE,106,11.0,15.2,42,0.00,,,0.00,CWS Microserver 1.4,2013-07-16 18:12:00,
2013-07-16 12:17:00,65.8,41.6,30.53,East,93,6.2,15.2,41,0.00,,,0.00,CWS Microserver 1.4,2013-07-16 18:17:00,
2013-07-16 12:22:00,66.0,42.9,30.53,ESE,106,0.8,14.3,43,0.00,,,0.00,CWS Microserver 1.4,2013-07-16 18:22:00,
2013-07-16 12:27:00,65.4,43.5,30.53,SE,143,9.2,12.1,45,0.00,,,0.00,CWS Microserver 1.4,2013-07-16 18:27:00,
2013-07-16 12:32:00,65.4,44.4,30.53,East,94,8.8,11.7,46,0.00,,,0.00,CWS Microserver 1.4,2013-07-16 18:32:00,
2013-07-16 12:37:00,66.0,42.5,30.53,SE,129,7.1,15.2,42,0.00,,,0.00,CWS Microserver 1.4,2013-07-16 18:37:00,
2013-07-16 12:42:00,66.0,44.2,30.54,East,92,10.1,15.2,45,0.00,,,0.00,CWS Microserver 1.4,2013-07-16 18:42:00,
2013-07-16 12:47:00,65.1,43.9,30.53,East,86,5.7,12.4,46,0.00,,,0.00,CWS Microserver 1.4,2013-07-16 18:47:00,
2013-07-16 12:52:00,65.6,43.6,30.53,ESE,122,11.6,13.8,45,0.00,,,0.00,CWS Microserver 1.4,2013-07-16 18:52:00,
2013-07-16 12:57:00,65.8,44.3,30.53,SE,129,8.0,16.9,45,0.00,,,0.00,CWS Microserver 1.4,2013-07-16 18:57:00,
2013-07-16 13:02:00,66.2,43.6,30.53,East,93,11.3,16.9,44,0.00,,,0.00,CWS Microserver 1.4,2013-07-16 19:02:00,
2013-07-16 13:07:00,66.2,43.8,30.53,ENE,59,4.3,13.8,44,0.00,,,0.00,CWS Microserver 1.4,2013-07-16 19:07:00,
2013-07-16 13:12:00,66.3,43.4,30.53,ESE,122,12.0,12.6,43,0.00,,,0.00,CWS Microserver 1.4,2013-07-16 19:12:00,
2013-07-16 13:17:00,66.5,43.9,30.53,NNE,18,1.5,15.9,44,0.00,,,0.00,CWS Microserver 1.4,2013-07-16 19:17:00,
2013-07-16 13:22:00,67.1,42.9,30.53,ESE,107,6.3,15.9,41,0.00,,,0.00,CWS Microserver 1.4,2013-07-16 19:22:00,
2013-07-16 13:27:00,66.9,43.2,30.53,ESE,121,8.0,12.3,42,0.00,,,0.00,CWS Microserver 1.4,2013-07-16 19:27:00,
2013-07-16 13:32:00,66.7,43.0,30.53,East,101,5.3,16.9,42,0.00,,,0.00,CWS Microserver 1.4,2013-07-16 19:32:00,
2013-07-16 13:37:00,66.9,43.4,30.53,East,88,9.7,16.9,42,0.00,,,0.00,CWS Microserver 1.4,2013-07-16 19:37:00,
2013-07-16 13:42:00,66.5,43.6,30.53,South,171,1.1,14.7,43,0.00,,,0.00,CWS Microserver 1.4,2013-07-16 19:42:00,
2013-07-16 13:47:00,66.7,43.7,30.53,ESE,119,2.5,14.7,43,0.00,,,0.00,CWS Microserver 1.4,2013-07-16 19:47:00,
2013-07-16 13:52:00,67.1,43.3,30.53,SSE,158,3.3,16.8,42,0.00,,,0.00,CWS Microserver 1.4,2013-07-16 19:52:00,
2013-07-16 13:57:00,66.7,43.3,30.53,West,265,2.2,16.8,42,0.00,,,0.00,CWS Microserver 1.4,2013-07-16 19:57:00,
2013-07-16 14:02:00,67.4,43.4,30.53,East,92,8.8,15.9,41,0.00,,,0.00,CWS Microserver 1.4,2013-07-16 20:02:00,
2013-07-16 14:07:00,67.4,43.5,30.53,East,93,5.4,13.5,42,0.00,,,0.00,CWS Microserver 1.4,2013-07-16 20:07:00,
2013-07-16 14:12:00,68.1,42.0,30.53,ESE,122,9.9,16.4,38,0.00,,,0.00,CWS Microserver 1.4,2013-07-16 20:12:00,
2013-07-16 14:17:00,68.1,41.7,30.53,East,100,10.0,18.2,38,0.00,,,0.00,CWS Microserver 1.4,2013-07-16 20:17:00,
2013-07-16 14:22:00,67.6,41.4,30.53,South,189,4.9,18.2,38,0.00,,,0.00,CWS Microserver 1.4,2013-07-16 20:22:00,
2013-07-16 14:27:00,68.7,40.6,30.53,East,82,7.3,14.6,36,0.00,,,0.00,CWS Microserver 1.4,2013-07-16 20:27:00,
2013-07-16 14:32:00,68.1,40.4,30.53,East,82,3.9,14.6,36,0.00,,,0.00,CWS Microserver 1.4,2013-07-16 20:32:00,
2013-07-16 14:37:00,68.0,40.6,30.53,East,100,8.7,14.5,36,0.00,,,0.00,CWS Microserver 1.4,2013-07-16 20:37:00,
2013-07-16 14:42:00,68.7,40.5,30.53,ESE,111,16.4,16.4,35,0.00,,,0.00,CWS Microserver 1.4,2013-07-16 20:42:00,
2013-07-16 14:47:00,68.3,40.1,30.53,SSE,168,1.4,16.4,35,0.00,,,0.00,CWS Microserver 1.4,2013-07-16 20:47:00,
2013-07-16 14:52:00,68.3,41.3,30.53,ESE,120,4.6,16.4,37,0.00,,,0.00,CWS Microserver 1.4,2013-07-16 20:52:00,
2013-07-16 14:57:00,68.0,40.3,30.53,East,91,3.4,13.6,36,0.00,,,0.00,CWS Microserver 1.4,2013-07-16 20:57:00,
2013-07-16 15:02:00,68.0,40.1,30.53,NE,49,6.1,13.6,36,0.00,,,0.00,CWS Microserver 1.4,2013-07-16 21:02:00,
2013-07-16 15:07:00,69.0,40.7,30.53,East,94,3.8,12.7,35,0.00,,,0.00,CWS Microserver 1.4,2013-07-16 21:07:00,
2013-07-16 15:12:00,68.9,40.6,30.53,West,263,0.7,10.8,35,0.00,,,0.00,CWS Microserver 1.4,2013-07-16 21:12:00,
2013-07-16 15:17:00,68.9,40.6,30.54,East,101,6.0,13.6,35,0.00,,,0.00,CWS Microserver 1.4,2013-07-16 21:17:00,
2013-07-16 15:22:00,68.9,41.4,30.54,ESE,102,4.7,13.6,36,0.00,,,0.00,CWS Microserver 1.4,2013-07-16 21:22:00,
2013-07-16 15:27:00,68.5,41.1,30.53,East,85,6.8,13.5,36,0.00,,,0.00,CWS Microserver 1.4,2013-07-16 21:27:00,
2013-07-16 15:32:00,69.0,41.2,30.53,ESE,109,5.6,12.5,36,0.00,,,0.00,CWS Microserver 1.4,2013-07-16 21:32:00,
2013-07-16 15:37:00,69.4,41.9,30.54,ESE,117,7.9,14.4,37,0.00,,,0.00,CWS Microserver 1.4,2013-07-16 21:37:00,
2013-07-16 15:42:00,68.5,41.1,30.53,East,85,6.5,14.4,37,0.00,,,0.00,CWS Microserver 1.4,2013-07-16 21:42:00,
2013-07-16 15:47:00,69.2,41.3,30.53,East,93,5.7,15.2,36,0.00,,,0.00,CWS Microserver 1.4,2013-07-16 21:47:00,
2013-07-16 15:52:00,68.9,41.4,30.53,ESE,102,10.2,17.6,36,0.00,,,0.00,CWS Microserver 1.4,2013-07-16 21:52:00,
2013-07-16 15:57:00,69.2,41.5,30.53,East,100,9.1,17.6,36,0.00,,,0.00,CWS Microserver 1.4,2013-07-16 21:57:00,
2013-07-16 16:02:00,69.0,41.6,30.53,ESE,116,2.2,15.1,37,0.00,,,0.00,CWS Microserver 1.4,2013-07-16 22:02:00,
2013-07-16 16:07:00,68.7,41.6,30.53,SE,126,3.4,15.1,37,0.00,,,0.00,CWS Microserver 1.4,2013-07-16 22:07:00,
2013-07-16 16:12:00,69.0,42.1,30.53,NE,48,4.2,13.0,37,0.00,,,0.00,CWS Microserver 1.4,2013-07-16 22:12:00,
2013-07-16 16:17:00,68.9,42.0,30.53,SE,129,9.7,13.0,37,0.00,,,0.00,CWS Microserver 1.4,2013-07-16 22:17:00,
2013-07-16 16:22:00,69.0,42.5,30.53,ESE,110,6.3,14.6,38,0.00,,,0.00,CWS Microserver 1.4,2013-07-16 22:22:00,
2013-07-16 16:27:00,68.7,42.5,30.53,East,93,12.1,14.8,38,0.00,,,0.00,CWS Microserver 1.4,2013-07-16 22:27:00,
2013-07-16 16:32:00,69.0,42.6,30.53,NE,40,3.9,14.8,38,0.00,,,0.00,CWS Microserver 1.4,2013-07-16 22:32:00,
2013-07-16 16:37:00,68.7,42.6,30.53,SE,134,9.3,12.4,38,0.00,,,0.00,CWS Microserver 1.4,2013-07-16 22:37:00,
2013-07-16 16:42:00,68.7,42.7,30.53,ESE,111,11.1,11.3,39,0.00,,,0.00,CWS Microserver 1.4,2013-07-16 22:42:00,
2013-07-16 16:47:00,69.0,42.5,30.53,ESE,120,9.4,11.3,38,0.00,,,0.00,CWS Microserver 1.4,2013-07-16 22:47:00,
2013-07-16 16:52:00,68.7,42.6,30.53,ENE,60,6.3,11.6,38,0.00,,,0.00,CWS Microserver 1.4,2013-07-16 22:52:00,
2013-07-16 16:57:00,68.7,42.9,30.53,South,189,2.1,13.5,39,0.00,,,0.00,CWS Microserver 1.4,2013-07-16 22:57:00,
2013-07-16 17:02:00,69.0,43.3,30.53,East,95,4.7,13.9,39,0.00,,,0.00,CWS Microserver 1.4,2013-07-16 23:02:00,
2013-07-16 17:07:00,69.2,43.1,30.53,NW,325,0.6,13.9,38,0.00,,,0.00,CWS Microserver 1.4,2013-07-16 23:07:00,
2013-07-16 17:12:00,68.9,42.5,30.53,ESE,123,5.4,12.6,38,0.00,,,0.00,CWS Microserver 1.4,2013-07-16 23:12:00,
2013-07-16 17:17:00,69.4,42.8,30.53,East,85,6.0,12.6,38,0.00,,,0.00,CWS Microserver 1.4,2013-07-16 23:17:00,
2013-07-16 17:27:00,68.9,42.5,30.53,East,81,2.0,11.3,38,0.00,,,0.00,CWS Microserver 1.4,2013-07-16 23:27:00,
2013-07-16 17:32:00,68.7,42.7,30.53,East,84,1.0,11.2,39,0.00,,,0.00,CWS Microserver 1.4,2013-07-16 23:32:00,
2013-07-16 17:37:00,68.7,42.1,30.53,North,359,1.0,10.2,38,0.00,,,0.00,CWS Microserver 1.4,2013-07-16 23:37:00,
2013-07-16 17:42:00,68.7,42.3,30.53,ESE,113,5.2,12.8,38,0.00,,,0.00,CWS Microserver 1.4,2013-07-16 23:42:00,
2013-07-16 17:52:00,69.0,43.0,30.53,SE,125,1.2,12.9,39,0.00,,,0.00,CWS Microserver 1.4,2013-07-16 23:52:00,
2013-07-16 17:57:00,68.5,43.3,30.53,ENE,75,1.5,9.7,40,0.00,,,0.00,CWS Microserver 1.4,2013-07-16 23:57:00,
2013-07-16 18:02:00,68.3,43.1,30.53,East,86,5.7,11.6,40,0.00,,,0.00,CWS Microserver 1.4,2013-07-17 00:02:00,
2013-07-16 18:07:00,68.3,43.4,30.53,ESE,121,4.7,13.6,40,0.00,,,0.00,CWS Microserver 1.4,2013-07-17 00:07:00,
2013-07-16 18:12:00,68.1,43.3,30.53,East,92,4.4,13.6,40,0.00,,,0.00,CWS Microserver 1.4,2013-07-17 00:12:00,
2013-07-16 18:17:00,68.0,43.6,30.53,ESE,112,8.0,13.1,41,0.00,,,0.00,CWS Microserver 1.4,2013-07-17 00:17:00,
2013-07-16 18:22:00,67.6,43.4,30.53,SSE,165,0.7,15.4,41,0.00,,,0.00,CWS Microserver 1.4,2013-07-17 00:22:00,
2013-07-16 18:27:00,67.2,43.1,30.53,ESE,115,7.2,15.4,41,0.00,,,0.00,CWS Microserver 1.4,2013-07-17 00:27:00,
2013-07-16 18:32:00,67.1,43.2,30.53,ESE,109,9.4,11.3,42,0.00,,,0.00,CWS Microserver 1.4,2013-07-17 00:32:00,
2013-07-16 18:37:00,66.9,43.2,30.53,ESE,116,5.7,11.1,42,0.00,,,0.00,CWS Microserver 1.4,2013-07-17 00:37:00,
2013-07-16 18:42:00,66.7,43.1,30.53,ESE,121,7.0,9.4,42,0.00,,,0.00,CWS Microserver 1.4,2013-07-17 00:42:00,
2013-07-16 18:47:00,66.7,43.1,30.54,NE,51,3.1,11.3,42,0.00,,,0.00,CWS Microserver 1.4,2013-07-17 00:47:00,
2013-07-16 18:52:00,66.5,43.1,30.54,SE,146,3.3,11.3,42,0.00,,,0.00,CWS Microserver 1.4,2013-07-17 00:52:00,
2013-07-16 18:57:00,66.5,43.3,30.54,ESE,107,1.1,9.2,43,0.00,,,0.00,CWS Microserver 1.4,2013-07-17 00:57:00,
2013-07-16 19:02:00,66.5,43.4,30.54,ESE,115,5.9,8.8,43,0.00,,,0.00,CWS Microserver 1.4,2013-07-17 01:02:00,
2013-07-16 19:07:00,66.3,43.3,30.54,SE,124,6.3,13.4,43,0.00,,,0.00,CWS Microserver 1.4,2013-07-17 01:07:00,
2013-07-16 19:12:00,66.3,43.2,30.54,SE,139,6.1,14.4,43,0.00,,,0.00,CWS Microserver 1.4,2013-07-17 01:12:00,
2013-07-16 19:17:00,66.2,43.4,30.54,SE,124,10.3,14.4,43,0.00,,,0.00,CWS Microserver 1.4,2013-07-17 01:17:00,
2013-07-16 19:22:00,66.0,43.5,30.54,ESE,116,7.5,13.6,44,0.00,,,0.00,CWS Microserver 1.4,2013-07-17 01:22:00,
2013-07-16 19:27:00,65.8,43.5,30.54,ESE,123,7.8,13.6,44,0.00,,,0.00,CWS Microserver 1.4,2013-07-17 01:27:00,
2013-07-16 19:32:00,65.8,43.6,30.54,SSE,157,5.0,11.8,44,0.00,,,0.00,CWS Microserver 1.4,2013-07-17 01:32:00,
2013-07-16 19:37:00,65.6,43.5,30.54,ESE,114,6.4,11.8,44,0.00,,,0.00,CWS Microserver 1.4,2013-07-17 01:37:00,
2013-07-16 19:42:00,65.6,43.5,30.55,SE,146,2.6,10.0,44,0.00,,,0.00,CWS Microserver 1.4,2013-07-17 01:42:00,
2013-07-16 19:47:00,65.4,43.8,30.55,ESE,114,3.3,9.3,45,0.00,,,0.00,CWS Microserver 1.4,2013-07-17 01:47:00,
2013-07-16 19:52:00,65.3,43.8,30.54,East,89,2.3,7.0,45,0.00,,,0.00,CWS Microserver 1.4,2013-07-17 01:52:00,
2013-07-16 19:57:00,65.1,44.2,30.55,East,79,1.4,6.9,46,0.00,,,0.00,CWS Microserver 1.4,2013-07-17 01:57:00,
2013-07-16 20:02:00,64.7,44.4,30.55,WNW,301,0.8,6.3,47,0.00,,,0.00,CWS Microserver 1.4,2013-07-17 02:02:00,
2013-07-16 20:07:00,64.4,44.3,30.55,SW,221,0.4,3.8,48,0.00,,,0.00,CWS Microserver 1.4,2013-07-17 02:07:00,
2013-07-16 20:12:00,64.0,45.2,30.55,NNW,346,1.4,3.8,50,0.00,,,0.00,CWS Microserver 1.4,2013-07-17 02:12:00,
2013-07-16 20:17:00,63.5,46.2,30.55,SSW,198,1.5,2.0,53,0.00,,,0.00,CWS Microserver 1.4,2013-07-17 02:17:00,
2013-07-16 20:22:00,62.4,45.6,30.55,SW,236,2.3,3.5,54,0.00,,,0.00,CWS Microserver 1.4,2013-07-17 02:22:00,
2013-07-16 20:27:00,61.7,46.0,30.55,SW,235,0.5,3.5,56,0.00,,,0.00,CWS Microserver 1.4,2013-07-17 02:27:00,
2013-07-16 20:32:00,61.1,46.1,30.55,SSW,197,1.0,2.5,57,0.00,,,0.00,CWS Microserver 1.4,2013-07-17 02:32:00,
2013-07-16 20:37:00,60.4,45.9,30.55,WSW,252,2.3,4.3,58,0.00,,,0.00,CWS Microserver 1.4,2013-07-17 02:37:00,
2013-07-16 20:42:00,59.9,45.8,30.55,SSW,206,0.9,4.3,59,0.00,,,0.00,CWS Microserver 1.4,2013-07-17 02:42:00,
2013-07-16 20:47:00,59.3,46.1,30.55,SW,220,3.6,4.4,61,0.00,,,0.00,CWS Microserver 1.4,2013-07-17 02:47:00,
2013-07-16 20:52:00,58.8,45.5,30.56,SW,216,2.7,4.4,61,0.00,,,0.00,CWS Microserver 1.4,2013-07-17 02:52:00,
2013-07-16 21:02:00,57.9,45.4,30.56,WNW,288,3.0,6.3,63,0.00,,,0.00,CWS Microserver 1.4,2013-07-17 03:02:00,
2013-07-16 21:07:00,57.7,45.5,30.56,SW,218,2.4,6.3,63,0.00,,,0.00,CWS Microserver 1.4,2013-07-17 03:07:00,
2013-07-16 21:12:00,57.5,45.3,30.57,SW,233,1.6,5.0,63,0.00,,,0.00,CWS Microserver 1.4,2013-07-17 03:12:00,
2013-07-16 21:17:00,57.5,45.3,30.57,WNW,296,2.1,4.5,63,0.00,,,0.00,CWS Microserver 1.4,2013-07-17 03:17:00,
2013-07-16 21:22:00,57.3,45.3,30.57,WSW,255,3.3,5.9,64,0.00,,,0.00,CWS Microserver 1.4,2013-07-17 03:22:00,
2013-07-16 21:27:00,57.2,45.5,30.57,WSW,241,4.4,6.6,64,0.00,,,0.00,CWS Microserver 1.4,2013-07-17 03:27:00,
2013-07-16 21:37:00,56.6,45.4,30.58,NW,307,0.7,5.2,66,0.00,,,0.00,CWS Microserver 1.4,2013-07-17 03:37:00,
2013-07-16 21:42:00,56.4,45.4,30.58,NW,306,0.9,5.1,66,0.00,,,0.00,CWS Microserver 1.4,2013-07-17 03:42:00,
2013-07-16 21:47:00,56.1,45.2,30.58,West,266,1.6,3.1,66,0.00,,,0.00,CWS Microserver 1.4,2013-07-17 03:47:00,
2013-07-16 21:52:00,55.7,45.1,30.58,SW,219,1.8,4.9,67,0.00,,,0.00,CWS Microserver 1.4,2013-07-17 03:52:00,
2013-07-16 21:57:00,55.5,44.9,30.58,West,281,1.8,4.9,67,0.00,,,0.00,CWS Microserver 1.4,2013-07-17 03:57:00,
2013-07-16 22:02:00,55.5,45.4,30.58,West,262,0.4,4.0,68,0.00,,,0.00,CWS Microserver 1.4,2013-07-17 04:02:00,
2013-07-16 22:07:00,55.2,45.5,30.58,SW,221,0.4,3.8,69,0.00,,,0.00,CWS Microserver 1.4,2013-07-17 04:07:00,
2013-07-16 22:12:00,54.8,45.1,30.58,West,261,1.6,2.7,69,0.00,,,0.00,CWS Microserver 1.4,2013-07-17 04:12:00,
2013-07-16 22:17:00,54.6,44.8,30.58,SW,216,4.2,4.2,69,0.00,,,0.00,CWS Microserver 1.4,2013-07-17 04:17:00,
2013-07-16 22:22:00,54.5,44.7,30.58,West,273,2.3,4.3,69,0.00,,,0.00,CWS Microserver 1.4,2013-07-17 04:22:00,
2013-07-16 22:27:00,54.3,44.9,30.58,NNE,24,0.4,4.3,70,0.00,,,0.00,CWS Microserver 1.4,2013-07-17 04:27:00,
2013-07-16 22:32:00,53.9,45.3,30.58,SSW,192,0.6,2.5,72,0.00,,,0.00,CWS Microserver 1.4,2013-07-17 04:32:00,
2013-07-16 22:37:00,53.6,44.6,30.58,West,267,0.7,2.9,71,0.00,,,0.00,CWS Microserver 1.4,2013-07-17 04:37:00,
2013-07-16 22:42:00,53.6,44.9,30.58,SW,217,0.6,3.6,72,0.00,,,0.00,CWS Microserver 1.4,2013-07-17 04:42:00,
2013-07-16 22:47:00,53.2,44.6,30.58,West,274,0.5,3.6,72,0.00,,,0.00,CWS Microserver 1.4,2013-07-17 04:47:00,
2013-07-16 22:52:00,53.0,44.4,30.58,SW,217,2.5,3.7,72,0.00,,,0.00,CWS Microserver 1.4,2013-07-17 04:52:00,
2013-07-16 22:57:00,52.8,44.2,30.58,WSW,254,1.0,4.2,72,0.00,,,0.00,CWS Microserver 1.4,2013-07-17 04:57:00,
2013-07-16 23:02:00,52.7,44.6,30.58,SW,223,3.1,4.2,73,0.00,,,0.00,CWS Microserver 1.4,2013-07-17 05:02:00,
2013-07-16 23:07:00,52.5,44.4,30.58,SW,236,2.8,4.0,73,0.00,,,0.00,CWS Microserver 1.4,2013-07-17 05:07:00,
2013-07-16 23:12:00,52.3,44.2,30.59,West,265,2.3,4.2,73,0.00,,,0.00,CWS Microserver 1.4,2013-07-17 05:12:00,
2013-07-16 23:17:00,52.3,44.1,30.59,WNW,297,2.7,4.6,73,0.00,,,0.00,CWS Microserver 1.4,2013-07-17 05:17:00,
2013-07-16 23:22:00,52.1,44.2,30.59,WSW,238,1.7,4.6,74,0.00,,,0.00,CWS Microserver 1.4,2013-07-17 05:22:00,
2013-07-16 23:27:00,51.9,43.8,30.59,NNW,333,2.5,4.0,73,0.00,,,0.00,CWS Microserver 1.4,2013-07-17 05:27:00,
2013-07-16 23:32:00,51.9,43.7,30.59,WNW,301,1.1,5.9,73,0.00,,,0.00,CWS Microserver 1.4,2013-07-17 05:32:00,
2013-07-16 23:37:00,51.8,43.7,30.59,SW,221,1.9,5.9,73,0.00,,,0.00,CWS Microserver 1.4,2013-07-17 05:37:00,
2013-07-16 23:42:00,51.4,43.7,30.59,SW,233,1.8,3.9,74,0.00,,,0.00,CWS Microserver 1.4,2013-07-17 05:42:00,
2013-07-16 23:47:00,51.2,43.8,30.59,SW,224,2.6,3.2,75,0.00,,,0.00,CWS Microserver 1.4,2013-07-17 05:47:00,
2013-07-16 23:57:00,51.2,43.3,30.59,WSW,250,2.2,5.1,74,0.00,,,0.00,CWS Microserver 1.4,2013-07-17 05:57:00,